Temperature
7 6 6 6 6 7 6 6 6 7 7 7 7 7 8 8 8 8 8 8 8 9 9 9 9 9 9 9 9 10 10 10 10 10 10 10 11 11 11 11 11 10 11 11
6 7 7 7 7 7 6 6 6 6 7 7 7 7 7 7 8 8 8 8 8 9 9 9 9 9 9 9 9 9 10 10 10 10 10 10 10 10 10 10 10 10 10 10
8 8 8 7 7 7 7 6 6 6 7 7 7 7 7 8 8 8 8 8 8 8 9 9 9 9 9 9 9 9 9 9 9 9 9 10 10 10 9 9 10 10 10 10
7 7 7 7 7 7 7 7 7 7 6 6 6 6 7 7 7 7 7 8 8 8 9 9 9 9 9 9 9 9 9 9 9 9 9 9 9 9 9 9 9 9 9 9
7 7 7 7 8 7 7 7 7 7 6 6 6 6 6 6 7 7 7 8 8 8 9 9 9 9 9 9 9 9 9 9 9 9 9 9 9 9 9 9 9 9 9 9
7 7 7 7 7 7 7 7 7 6 6 7 6 6 6 6 7 7 7 8 8 9 9 9 9 9 9 9 9 9 9 9 9 9 9 9 8 9 8 8 9 9 9 9
7 8 7 7 7 7 6 6 6 6 6 6 6 6 6 7 7 7 7 8 9 9 9 9 9 9 9 9 9 9 9 9 9 9 8 8 8 8 8 8 8 8 8 8
7 7 7 7 7 7 7 7 6 7 6 6 6 6 7 7 7 7 8 8 8 9 9 9 9 9 9 9 9 9 9 9 9 8 8 8 8 8 8 8 8 8 8 8
6 7 7 7 7 7 7 6 6 5 5 5 6 6 7 7 7 7 7 8 8 8 9 9 9 9 9 9 9 9 9 9 8 8 8 8 8 8 8 8 7 7 7 7
6 6 7 6 7 7 7 5 4 5 7 7 7 6 6 7 7 6 6 7 8 8 9 9 9 9 9 9 9 9 8 8 8 8 8 8 8 8 8 7 7 7 7 7
6 6 6 6 6 6 6 6 5 4 5 6 6 7 7 7 7 6 6 7 8 8 8 9 9 9 8 8 8 8 8 8 8 8 8 8 8 7 7 7 7 7 7 7
5 4 5 6 6 6 6 6 5 6 5 4 4 6 7 6 6 6 6 7 8 8 8 8 8 8 8 8 8 8 8 8 8 8 7 7 7 7 7 7 7 7 6 6
5 5 6 7 7 6 6 6 5 4 4 3 4 6 7 6 6 6 6 7 8 8 8 8 8 8 8 8 8 8 8 7 7 7 7 7 7 7 7 7 7 6 6 6
5 4 5 7 7 5 5 5 5 4 4 4 4 5 6 6 6 6 7 7 7 8 8 8 8 8 8 8 8 8 7 7 7 7 7 7 7 7 7 6 6 6 6 6
5 4 4 4 5 4 4 5 4 4 4 5 5 5 6 5 5 6 6 7 7 7 7 7 8 8 8 8 8 7 7 7 7 7 7 7 7 6 6 6 6 6 5 5
3 4 4 4 4 4 4 4 4 4 4 4 5 5 5 5 5 5 6 6 6 7 7 7 7 7 7 7 7 7 7 7 7 7 7 6 6 6 6 6 5 5 5 5
2 3 4 4 4 4 5 5 4 4 4 4 5 5 5 4 5 5 6 6 6 7 7 7 7 7 7 7 7 7 7 7 7 7 6 6 6 5 5 5 5 5 5 5
2 3 3 3 4 5 7 5 5 4 4 3 4 4 4 4 5 6 6 6 7 7 7 7 7 7 7 7 7 6 6 6 6 6 6 6 5 5 5 5 5 5 4 4
2 3 3 3 3 4 5 5 4 4 4 4 4 4 4 5 5 6 7 6 6 6 6 6 6 6 6 6 6 6 6 6 6 6 5 5 5 5 5 5 4 4 4 4
1 2 3 3 4 5 6 5 5 5 5 5 4 4 4 4 3 4 6 6 6 6 6 6 6 6 6 6 5 5 5 5 5 5 5 5 5 4 4 4 4 4 3 3
2 2 2 2 3 4 4 5 5 5 5 5 5 4 4 3 4 5 5 5 5 5 5 5 5 5 5 5 5 5 5 5 5 5 4 4 4 4 4 3 3 3 3 3
2 2 2 2 3 4 4 3 4 4 5 5 5 5 4 5 5 5 5 5 5 5 5 5 5 5 4 4 4 4 4 4 4 4 4 4 4 3 3 3 3 3 2 2
2 2 2 3 4 4 4 4 5 5 5 5 5 5 4 4 4 4 4 4 4 4 4 4 4 4 4 4 4 4 4 4 3 3 3 3 3 3 3 2 2 2 2 2
1 1 1 1 2 3 4 4 5 4 4 4 4 4 4 4 4 4 3 3 3 3 3 3 3 3 3 3 3 3 3 3 3 3 3 3 2 2 2 2 2 2 1 1
1 1 1 1 2 2 4 4 4 4 4 4 4 4 3 3 3 3 3 3 3 3 3 3 2 3 3 3 3 2 2 2 2 2 2 2 2 1 1 1 1 1 1 1
0 1 1 2 3 2 3 4 3 3 3 3 3 3 3 3 2 2 2 2 2 2 2 2 2 2 2 2 2 2 2 1 1 1 1 1 1 1 1 1 1 1 0 0
Wind_Speed
3 3 2 5 4 4 4 5 8 8 5 4 6 9 10 7 4 3 3 3 2 2 2 2 3 3 2 3 5 5 6 5 5 3 3 4 3 2 3 4 5 6 6 6
4 3 5 4 3 3 4 6 6 7 4 3 6 9 8 5 3 3 3 3 3 2 2 3 3 3 2 3 4 5 5 5 4 3 2 3 3 3 2 3 5 5 6 5
3 5 2 1 2 2 4 4 5 6 6 3 4 7 5 4 2 2 2 2 2 4 4 3 3 3 3 3 4 4 5 5 4 4 4 5 4 3 2 3 2 3 4 5
4 4 2 2 2 1 5 4 5 4 4 4 3 4 7 5 5 3 3 2 2 2 3 3 4 3 3 3 3 4 5 5 4 4 5 5 4 3 2 2 2 2 3 4
5 2 2 3 3 3 6 4 3 2 1 3 3 1 7 4 4 5 4 3 3 3 3 4 5 5 3 3 3 4 4 4 4 4 4 5 4 2 2 3 3 2 2 3
5 3 2 3 3 2 4 3 1 2 2 2 2 1 6 3 4 5 4 4 3 3 3 3 3 4 3 3 3 4 4 4 4 4 4 5 5 5 4 3 2 1 1 1
6 4 2 0 3 3 3 4 5 6 4 4 2 1 6 6 5 4 5 5 4 3 3 3 4 4 4 5 4 4 5 4 4 4 4 4 5 5 5 4 3 2 1 1
4 6 3 1 1 1 1 3 3 1 3 5 4 4 6 5 5 5 4 3 2 2 3 4 5 5 5 5 5 5 5 4 4 4 4 4 4 3 3 3 3 4 3 2
2 6 3 2 2 2 1 1 2 3 1 3 6 6 7 3 5 5 4 2 2 3 4 4 4 4 4 5 5 6 5 4 5 5 4 4 4 4 4 3 3 2 2 2
4 5 4 3 1 2 2 4 4 2 1 4 7 5 4 7 7 6 5 4 4 3 3 3 4 4 4 4 4 4 5 5 4 5 4 4 4 4 4 4 4 3 3 2
3 3 5 3 2 3 2 2 2 2 2 2 4 6 4 5 4 5 5 5 4 3 3 3 3 3 3 3 4 4 4 4 4 4 4 4 4 4 4 4 4 3 3 3
3 3 4 6 3 1 3 4 5 2 3 3 3 7 4 3 4 4 5 4 4 3 2 2 2 2 3 3 4 4 4 4 4 4 4 4 4 4 4 4 4 3 3 3
4 3 3 5 3 1 1 2 3 3 2 3 4 7 3 4 4 4 4 4 3 3 2 1 1 2 3 3 4 4 4 4 3 4 4 4 4 4 5 4 4 4 4 3
4 4 6 7 5 2 4 4 4 4 4 5 8 10 9 7 6 6 5 4 3 3 2 1 1 2 2 3 3 4 4 4 4 4 4 4 4 4 5 4 4 4 4 4
4 4 6 8 7 5 7 8 7 8 8 8 8 8 11 8 6 5 4 4 3 3 3 2 2 2 2 3 3 4 4 4 5 5 5 5 4 4 3 4 4 4 4 5
2 3 2 5 5 6 8 10 9 9 7 9 9 10 9 6 3 4 4 3 4 4 4 3 3 3 3 3 4 4 4 4 4 5 5 5 4 4 4 4 4 4 4 4
3 3 1 4 4 4 7 8 9 6 6 7 8 8 5 4 4 4 4 3 4 4 4 4 4 4 4 4 4 4 4 3 4 5 5 4 4 5 5 4 4 5 5 5
6 5 2 2 3 6 6 1 6 6 5 7 6 6 4 5 5 5 4 3 4 4 4 5 4 4 4 3 3 2 2 3 4 4 4 4 5 5 4 4 5 5 4 5
7 6 4 2 4 8 6 2 4 5 4 5 6 6 4 3 3 4 3 3 4 5 4 4 4 4 3 3 2 2 2 3 3 4 5 5 5 5 5 5 6 5 4 5
3 4 4 4 4 7 5 1 2 3 4 3 3 4 3 2 3 5 4 3 4 4 3 3 3 2 2 3 1 1 2 3 4 5 5 4 5 5 6 6 5 4 4 5
4 4 6 7 7 8 6 1 3 3 4 3 2 3 2 3 5 6 5 4 4 4 4 3 2 2 3 2 1 2 3 5 5 4 3 3 4 5 5 4 4 4 4 4
8 7 7 6 6 8 2 4 4 4 3 2 2 3 4 5 6 6 5 5 5 5 5 4 3 4 3 2 2 3 5 5 3 3 3 3 4 4 3 4 4 3 4 4
7 7 5 8 7 2 2 3 2 1 3 3 3 4 4 5 6 6 5 5 5 5 5 4 4 5 4 3 3 5 5 3 2 2 3 3 3 3 3 4 4 3 3 4
4 2 3 4 6 4 3 3 3 3 4 5 5 5 4 6 7 7 6 6 5 5 5 4 4 5 6 4 4 5 5 3 3 4 4 3 3 3 3 3 4 4 4 5
4 4 3 5 5 4 4 3 4 5 5 5 6 5 5 6 7 7 7 7 6 6 5 4 4 6 7 5 5 5 4 3 4 4 4 4 4 4 4 4 4 5 6 6
5 6 6 7 5 4 6 5 5 5 6 6 6 6 6 5 6 6 6 6 6 6 5 5 6 6 7 6 6 5 4 4 4 4 4 3 3 3 3 4 4 6 7 9
Wind_Direction
24 44 305 266 231 234 265 274 284 279 285 297 280 284 290 291 273 264 268 265 242 227 219 145 139 128 109 121 127 123 115 112 116 118 117 107 101 90 80 77 81 88 95 100
20 296 260 257 245 241 258 287 293 295 301 283 297 297 294 285 263 244 249 251 239 219 174 137 129 129 131 138 133 127 125 122 118 119 125 116 113 102 91 78 73 79 89 95
228 261 290 269 305 301 270 255 279 292 316 330 328 318 315 315 322 314 288 249 224 199 183 152 143 147 153 157 156 148 139 129 119 112 104 95 83 75 76 75 64 59 87 96
264 279 296 292 286 255 284 262 264 293 338 324 11 318 304 304 320 311 292 285 224 200 171 154 161 167 171 171 158 143 139 132 130 129 129 126 131 138 145 127 108 73 82 91
281 288 287 278 271 217 253 289 273 273 265 319 352 261 297 326 317 304 293 278 248 205 181 175 170 173 170 145 142 139 132 133 137 139 140 136 130 125 106 102 104 83 67 82
264 271 229 248 287 226 275 337 9 43 60 332 299 203 296 285 268 294 291 283 259 213 191 181 162 141 136 128 129 128 134 140 145 145 146 155 150 140 135 138 139 124 90 72
321 306 289 253 338 356 26 43 16 2 5 280 306 235 260 272 275 263 269 273 265 225 190 181 176 168 157 154 156 152 154 153 153 153 158 164 162 162 168 170 171 169 173 191
327 304 285 281 213 271 349 107 126 271 286 299 324 257 262 280 297 295 284 268 259 235 205 201 201 191 175 165 161 162 168 163 164 165 170 169 171 170 176 181 183 188 194 198
227 276 305 284 252 159 111 119 161 148 271 290 289 292 304 314 330 337 337 337 281 243 222 213 204 199 183 176 178 175 173 172 176 172 171 176 178 178 183 184 186 190 193 190
172 268 289 310 27 15 122 140 94 109 342 304 305 298 286 308 317 328 326 312 290 271 246 223 205 200 192 182 181 173 175 180 175 171 174 179 183 186 181 176 185 190 191 185
169 212 301 340 209 210 126 119 119 131 168 193 298 287 240 260 289 301 296 295 292 278 256 238 218 196 178 165 171 176 180 173 170 176 176 175 184 184 177 183 194 192 189 189
163 145 269 265 252 200 181 179 152 159 255 200 224 272 283 286 301 303 304 304 297 280 267 244 213 181 178 179 181 182 185 187 189 179 177 184 182 177 182 196 199 190 196 197
149 131 333 339 351 5 256 202 170 147 146 185 207 264 312 358 350 332 312 310 306 307 310 295 221 197 200 199 193 190 189 195 190 176 178 181 183 188 198 204 201 195 195 198
132 165 193 220 242 229 263 240 196 165 196 226 230 259 293 317 324 321 314 307 310 313 312 297 263 236 216 207 205 201 203 196 186 182 185 194 201 205 208 204 200 200 198 201
133 216 234 250 261 250 247 247 215 206 209 219 244 250 275 289 297 301 305 315 328 324 317 287 264 247 228 216 214 210 212 201 191 188 197 210 206 202 203 204 206 205 206 211
149 213 242 272 251 251 260 251 230 227 228 239 260 273 273 283 304 315 313 310 309 304 298 290 279 266 248 231 222 212 214 210 193 198 211 209 194 195 205 209 205 205 212 214
180 169 217 269 299 318 273 238 204 204 211 205 229 250 292 306 305 296 296 296 289 293 294 290 278 267 259 245 226 218 219 201 195 207 212 205 199 205 212 209 203 212 218 215
170 169 196 279 356 255 254 198 180 198 238 218 236 264 271 269 280 279 270 266 282 290 292 289 283 278 271 257 239 224 199 191 201 211 217 211 206 215 214 208 217 223 218 217
180 171 182 200 254 273 288 235 177 191 267 227 232 265 281 298 335 313 277 241 258 272 276 276 273 268 271 266 245 206 203 198 202 217 223 219 211 215 216 221 229 226 219 224
151 163 178 191 223 246 251 245 183 127 279 260 221 260 287 17 334 292 303 306 296 295 289 287 287 282 279 275 238 191 229 222 231 233 230 222 213 214 222 228 230 227 220 227
145 176 204 212 231 261 261 240 126 170 254 294 237 252 250 242 252 279 300 302 292 294 296 298 298 291 277 266 196 223 243 245 246 240 232 228 222 223 228 232 233 229 224 225
181 185 198 189 215 249 224 131 172 226 287 300 284 271 266 272 283 290 291 291 296 303 305 303 301 295 291 264 209 240 252 255 252 233 234 240 237 234 230 225 235 226 217 224
203 197 192 198 216 263 164 190 238 263 295 291 285 286 276 282 287 290 288 287 293 292 293 294 287 292 294 271 227 243 258 260 247 238 243 250 249 242 227 221 229 231 220 226
240 192 194 246 265 270 266 274 290 278 279 288 286 288 283 281 286 289 288 287 288 289 289 291 288 287 287 278 256 246 255 244 228 239 249 248 243 249 242 230 224 224 225 229
218 178 209 249 271 297 277 264 275 290 292 294 292 284 275 276 283 281 283 284 285 288 288 283 276 275 274 273 268 262 250 224 227 238 244 247 242 237 241 239 231 231 231 226
196 193 204 241 237 238 265 274 276 277 281 284 289 292 288 269 270 278 281 280 280 282 287 285 278 272 273 272 270 268 252 225 226 243 246 244 246 243 239 249 269 253 246 255
Height
1513 1516 1517 1515 1514 1513 1513 1513 1510 1504 1498 1497 1494 1490 1484 1481 1480 1479 1479 1478 1478 1478 1480 1481 1483 1485 1487 1489 1491 1493 1494 1496 1498 1500 1502 1505 1507 1509 1511 1514 1516 1518 1519 1520
1516 1516 1512 1510 1510 1511 1512 1511 1508 1502 1497 1496 1494 1489 1482 1479 1478 1477 1477 1477 1477 1478 1479 1480 1482 1483 1485 1487 1490 1492 1494 1496 1498 1500 1502 1504 1506 1509 1511 1513 1515 1517 1518 1520
1515 1513 1509 1509 1509 1510 1509 1509 1507 1504 1499 1496 1495 1490 1483 1479 1477 1476 1476 1476 1476 1477 1478 1479 1481 1483 1485 1487 1489 1492 1494 1496 1498 1500 1502 1504 1506 1508 1510 1512 1514 1516 1518 1519
1514 1510 1509 1509 1508 1509 1508 1504 1503 1502 1503 1504 1500 1500 1486 1481 1478 1476 1476 1475 1475 1476 1477 1479 1481 1483 1484 1487 1489 1491 1494 1496 1498 1500 1502 1503 1505 1507 1509 1511 1513 1516 1517 1519
1512 1509 1509 1508 1507 1507 1505 1502 1502 1502 1502 1503 1502 1502 1492 1484 1480 1477 1475 1474 1475 1475 1477 1478 1480 1483 1485 1487 1489 1491 1493 1496 1498 1500 1501 1503 1505 1507 1508 1511 1513 1514 1516 1517
1511 1508 1508 1506 1504 1504 1503 1503 1502 1504 1505 1505 1502 1503 1495 1487 1481 1477 1475 1474 1474 1475 1477 1478 1480 1482 1485 1487 1489 1490 1493 1495 1497 1499 1501 1503 1504 1506 1508 1510 1512 1513 1514 1515
1512 1508 1506 1505 1505 1504 1505 1508 1513 1510 1512 1507 1503 1502 1495 1482 1479 1477 1475 1473 1473 1474 1476 1477 1479 1481 1483 1485 1487 1489 1492 1494 1496 1498 1500 1502 1503 1505 1507 1509 1510 1512 1513 1514
1517 1514 1506 1505 1505 1506 1506 1508 1515 1514 1514 1511 1504 1501 1489 1480 1478 1475 1474 1473 1473 1473 1474 1476 1478 1480 1482 1484 1486 1488 1491 1493 1495 1496 1498 1501 1502 1504 1506 1508 1509 1510 1511 1512
1518 1513 1506 1505 1504 1505 1506 1511 1511 1517 1517 1517 1505 1497 1485 1478 1477 1475 1473 1473 1472 1473 1474 1475 1477 1479 1481 1483 1485 1487 1489 1491 1493 1495 1497 1499 1501 1503 1504 1506 1507 1508 1508 1509
1514 1515 1508 1506 1505 1505 1506 1509 1516 1515 1512 1511 1503 1499 1493 1481 1478 1476 1475 1473 1473 1473 1473 1474 1476 1478 1480 1482 1484 1486 1488 1490 1492 1494 1495 1497 1499 1501 1502 1504 1505 1505 1506 1507
1513 1516 1512 1508 1507 1507 1509 1510 1512 1517 1516 1515 1510 1499 1485 1481 1479 1477 1475 1474 1473 1473 1473 1474 1475 1477 1478 1480 1482 1484 1486 1488 1490 1491 1493 1495 1497 1498 1500 1501 1502 1503 1503 1504
1512 1517 1516 1509 1504 1504 1505 1506 1511 1513 1514 1519 1518 1502 1480 1480 1478 1477 1475 1474 1473 1473 1473 1473 1474 1475 1476 1478 1480 1482 1484 1486 1488 1489 1491 1493 1494 1495 1497 1498 1499 1499 1500 1501
1511 1515 1515 1507 1508 1507 1506 1506 1508 1511 1515 1520 1517 1497 1480 1479 1478 1477 1475 1474 1473 1473 1473 1473 1474 1474 1475 1477 1479 1481 1482 1484 1485 1487 1489 1490 1491 1492 1493 1494 1495 1496 1496 1497
1507 1512 1513 1509 1503 1505 1505 1504 1506 1509 1514 1513 1508 1494 1481 1479 1479 1477 1475 1474 1473 1472 1472 1472 1473 1474 1475 1476 1477 1478 1480 1482 1483 1485 1486 1487 1488 1489 1490 1491 1491 1492 1492 1493
1506 1510 1509 1506 1504 1504 1502 1500 1502 1503 1502 1502 1494 1492 1482 1479 1478 1476 1475 1473 1472 1472 1471 1472 1472 1473 1473 1474 1475 1476 1477 1479 1480 1481 1482 1483 1484 1485 1486 1486 1487 1487 1488 1489
1506 1508 1507 1505 1501 1502 1500 1495 1496 1496 1496 1494 1491 1487 1479 1478 1477 1475 1473 1472 1471 1471 1470 1470 1471 1471 1471 1472 1473 1473 1474 1475 1476 1477 1478 1479 1480 1480 1481 1482 1482 1483 1483 1484
1507 1508 1507 1504 1501 1497 1494 1486 1488 1489 1488 1488 1487 1482 1477 1477 1475 1474 1472 1471 1471 1470 1470 1469 1469 1469 1469 1469 1470 1470 1471 1472 1472 1473 1474 1474 1475 1476 1477 1477 1478 1478 1479 1479
1504 1506 1506 1506 1502 1497 1482 1479 1479 1481 1481 1481 1480 1477 1476 1475 1474 1472 1472 1471 1470 1470 1469 1468 1468 1467 1467 1467 1467 1467 1468 1468 1469 1469 1470 1470 1471 1471 1472 1472 1473 1473 1474 1474
1497 1500 1505 1507 1504 1493 1481 1478 1478 1480 1479 1476 1476 1474 1474 1473 1472 1470 1470 1470 1470 1469 1468 1467 1466 1466 1465 1464 1464 1464 1464 1464 1465 1465 1466 1466 1467 1467 1467 1468 1468 1468 1468 1468
1496 1497 1502 1503 1499 1488 1477 1475 1474 1477 1478 1472 1472 1472 1473 1472 1474 1470 1468 1468 1467 1467 1466 1465 1464 1463 1462 1462 1461 1461 1460 1460 1460 1461 1461 1462 1462 1462 1462 1463 1463 1463 1463 1463
1497 1498 1498 1498 1495 1485 1476 1473 1474 1480 1476 1471 1470 1470 1471 1471 1471 1468 1466 1465 1464 1463 1463 1461 1460 1459 1459 1458 1458 1457 1456 1456 1456 1456 1457 1457 1457 1457 1458 1458 1458 1458 1458 1458
1487 1491 1493 1493 1493 1484 1472 1473 1475 1473 1470 1469 1468 1468 1468 1467 1466 1464 1463 1462 1461 1459 1458 1458 1456 1455 1455 1454 1453 1452 1452 1452 1452 1452 1452 1452 1452 1452 1452 1452 1453 1453 1453 1452
1481 1479 1479 1480 1476 1471 1470 1469 1470 1470 1469 1468 1467 1466 1465 1464 1462 1461 1459 1458 1457 1456 1455 1453 1452 1451 1450 1450 1449 1448 1448 1448 1447 1447 1447 1447 1447 1447 1447 1447 1447 1447 1447 1447
1476 1475 1476 1476 1471 1469 1468 1468 1468 1468 1467 1466 1465 1463 1462 1460 1459 1457 1456 1454 1453 1452 1451 1449 1448 1446 1446 1445 1445 1444 1444 1443 1442 1442 1442 1442 1441 1441 1441 1441 1441 1441 1441 1441
1471 1473 1473 1472 1468 1467 1465 1465 1465 1465 1464 1462 1461 1460 1458 1457 1455 1453 1451 1450 1449 1447 1446 1445 1444 1442 1441 1440 1440 1439 1439 1438 1437 1437 1437 1437 1436 1436 1436 1436 1436 1435 1435 1435
1466 1468 1469 1466 1464 1465 1463 1463 1462 1461 1460 1458 1457 1455 1454 1453 1451 1449 1447 1446 1444 1443 1441 1440 1439 1437 1436 1435 1434 1434 1434 1433 1432 1432 1431 1431 1431 1430 1430 1430 1430 1429 1430 1429